Time,TemperatureF,DewpointF,PressureIn,WindDirection,WindDirectionDegrees,WindSpeedMPH,WindSpeedGustMPH,Humidity,HourlyPrecipIn,Conditions,Clouds,dailyrainin,SoftwareType,DateUTC
2013-12-13 01:22:00,19.0,-99.9,-100.00,North,-999,-999.0,-999.0,-999,0.00,,,-99.99,,2013-12-13 07:22:00,
2013-12-13 02:22:00,19.0,-99.9,-100.00,North,-999,-999.0,-999.0,-999,0.00,,,-99.99,,2013-12-13 08:22:00,
2013-12-13 03:43:00,18.0,-99.9,-100.00,North,-999,-999.0,-999.0,-999,0.00,,,-99.99,,2013-12-13 09:43:00,
2013-12-13 04:23:00,18.0,-99.9,-100.00,North,-999,-999.0,-999.0,-999,0.00,,,-99.99,,2013-12-13 10:23:00,
2013-12-13 04:43:00,18.0,-99.9,-100.00,North,-999,-999.0,-999.0,-999,0.00,,,-99.99,,2013-12-13 10:43:00,
2013-12-13 05:43:00,18.0,-99.9,-100.00,North,-999,-999.0,-999.0,-999,0.00,,,-99.99,,2013-12-13 11:43:00,
2013-12-13 06:42:00,19.0,-99.9,-100.00,North,-999,-999.0,-999.0,-999,0.00,,,-99.99,,2013-12-13 12:42:00,
2013-12-13 07:42:00,20.0,-99.9,-100.00,North,-999,-999.0,-999.0,-999,0.00,,,-99.99,,2013-12-13 13:42:00,
2013-12-13 08:43:00,20.0,-99.9,-100.00,North,-999,-999.0,-999.0,-999,0.00,,,-99.99,,2013-12-13 14:43:00,
2013-12-13 10:23:00,26.0,-99.9,-100.00,North,-999,-999.0,-999.0,-999,0.00,,,-99.99,,2013-12-13 16:23:00,
2013-12-13 10:43:00,26.0,-99.9,-100.00,North,-999,-999.0,-999.0,-999,0.00,,,-99.99,,2013-12-13 16:43:00,
2013-12-13 11:23:00,27.0,-99.9,-100.00,North,-999,-999.0,-999.0,-999,0.00,,,-99.99,,2013-12-13 17:23:00,
2013-12-13 12:42:00,29.0,29.0,-100.00,North,-999,-999.0,-999.0,96,0.00,,,-99.99,,2013-12-13 18:42:00,
2013-12-13 13:22:00,30.0,28.0,-100.00,North,-999,-999.0,-999.0,92,0.00,,,-99.99,,2013-12-13 19:22:00,
2013-12-13 13:42:00,30.0,27.0,-100.00,North,-999,-999.0,-999.0,90,0.00,,,-99.99,,2013-12-13 19:42:00,
2013-12-13 15:21:00,31.0,29.0,-100.00,North,-999,-999.0,-999.0,94,0.00,,,-99.99,,2013-12-13 21:21:00,
2013-12-13 16:23:00,29.0,29.0,-100.00,North,-999,-999.0,-999.0,99,0.00,,,-99.99,,2013-12-13 22:23:00,
2013-12-13 16:42:00,28.0,-99.9,-100.00,North,-999,-999.0,-999.0,-999,0.00,,,-99.99,,2013-12-13 22:42:00,
2013-12-13 17:43:00,26.0,-99.9,-100.00,North,-999,-999.0,-999.0,-999,0.00,,,-99.99,,2013-12-13 23:43:00,
2013-12-13 18:42:00,26.0,-99.9,-100.00,North,-999,-999.0,-999.0,-999,0.00,,,-99.99,,2013-12-14 00:42:00,
2013-12-13 20:22:00,26.0,-99.9,-100.00,North,-999,-999.0,-999.0,-999,0.00,,,-99.99,,2013-12-14 02:22:00,
2013-12-13 21:22:00,26.0,-99.9,-100.00,North,-999,-999.0,-999.0,-999,0.00,,,-99.99,,2013-12-14 03:22:00,
2013-12-13 22:23:00,26.0,-99.9,-100.00,North,-999,-999.0,-999.0,-999,0.00,,,-99.99,,2013-12-14 04:23:00,
2013-12-13 23:22:00,25.0,-99.9,-100.00,North,-999,-999.0,-999.0,-999,0.00,,,-99.99,,2013-12-14 05:22:00,